QPF
0.00 0.00 0.00 0.00 0.00 0.00 0.00 0.00 0.00 0.00 0.00 0.00 0.00 0.01 0.04 0.00 0.01 0.00 0.00 0.00 0.00 0.00 0.00 0.00 0.00 0.00 0.00 0.00 0.00 0.00 0.00 0.00 0.00 0.00 0.00 0.00 0.00 0.00 0.00 0.00 0.00 0.00 0.00
0.00 0.00 0.00 0.00 0.00 0.00 0.00 0.00 0.00 0.02 0.00 0.00 0.00 0.00 0.00 0.01 0.02 0.03 0.02 0.00 0.00 0.00 0.00 0.00 0.00 0.00 0.00 0.00 0.00 0.00 0.00 0.00 0.00 0.00 0.00 0.00 0.00 0.00 0.00 0.00 0.00 0.00 0.00
0.00 0.01 0.01 0.00 0.00 0.00 0.00 0.00 0.00 0.00 0.00 0.00 0.00 0.00 0.03 0.04 0.00 0.00 0.00 0.00 0.01 0.00 0.00 0.00 0.00 0.00 0.00 0.00 0.00 0.00 0.00 0.00 0.00 0.00 0.00 0.00 0.00 0.00 0.00 0.00 0.00 0.00 0.00
0.10 0.08 0.04 0.02 0.00 0.00 0.00 0.00 0.00 0.00 0.00 0.01 0.02 0.05 0.07 0.01 0.00 0.00 0.00 0.00 0.00 0.00 0.01 0.02 0.00 0.00 0.00 0.00 0.00 0.00 0.00 0.00 0.00 0.00 0.00 0.00 0.00 0.02 0.02 0.05 0.00 0.00 0.00
0.16 0.09 0.03 0.01 0.01 0.00 0.00 0.00 0.00 0.00 0.00 0.00 0.00 0.01 0.00 0.00 0.01 0.02 0.00 0.00 0.03 0.02 0.01 0.00 0.01 0.05 0.02 0.02 0.00 0.00 0.00 0.00 0.00 0.00 0.00 0.00 0.00 0.00 0.01 0.08 0.12 0.06 0.03
0.09 0.06 0.01 0.01 0.03 0.02 0.02 0.04 0.05 0.02 0.03 0.04 0.03 0.02 0.00 0.01 0.02 0.01 0.00 0.00 0.02 0.12 0.16 0.05 0.08 0.26 0.07 0.03 0.01 0.05 0.02 0.00 0.00 0.00 0.00 0.00 0.00 0.00 0.01 0.05 0.11 0.06 0.06
0.01 0.01 0.00 0.00 0.00 0.03 0.02 0.04 0.05 0.07 0.10 0.15 0.18 0.14 0.08 0.04 0.01 0.00 0.00 0.00 0.01 0.15 0.10 0.01 0.01 0.04 0.06 0.12 0.12 0.14 0.06 0.02 0.01 0.00 0.00 0.00 0.01 0.00 0.00 0.00 0.03 0.00 0.02
0.00 0.00 0.00 0.00 0.00 0.01 0.00 0.00 0.05 0.11 0.15 0.12 0.09 0.09 0.07 0.02 0.00 0.00 0.00 0.00 0.00 0.00 0.00 0.00 0.00 0.00 0.01 0.03 0.04 0.04 0.05 0.06 0.02 0.00 0.00 0.02 0.02 0.01 0.01 0.00 0.01 0.01 0.00
0.02 0.02 0.01 0.00 0.00 0.00 0.01 0.00 0.00 0.02 0.04 0.03 0.01 0.01 0.01 0.01 0.01 0.02 0.01 0.00 0.00 0.00 0.00 0.00 0.00 0.00 0.01 0.02 0.04 0.03 0.01 0.01 0.00 0.00 0.01 0.00 0.00 0.00 0.00 0.00 0.00 0.00 0.00
0.02 0.02 0.03 0.02 0.04 0.01 0.00 0.00 0.00 0.01 0.01 0.00 0.00 0.01 0.01 0.02 0.03 0.03 0.02 0.03 0.02 0.01 0.01 0.00 0.00 0.00 0.00 0.00 0.00 0.01 0.01 0.00 0.00 0.00 0.00 0.00 0.00 0.00 0.00 0.00 0.00 0.00 0.00
0.00 0.00 0.01 0.04 0.10 0.05 0.05 0.03 0.03 0.04 0.03 0.01 0.00 0.00 0.00 0.00 0.00 0.00 0.00 0.00 0.00 0.00 0.00 0.00 0.00 0.00 0.00 0.00 0.00 0.00 0.00 0.00 0.00 0.00 0.00 0.00 0.00 0.00 0.00 0.00 0.00 0.00 0.00
0.01 0.01 0.01 0.01 0.02 0.00 0.06 0.10 0.08 0.05 0.03 0.03 0.02 0.01 0.00 0.00 0.00 0.00 0.00 0.00 0.00 0.00 0.00 0.00 0.00 0.00 0.00 0.00 0.00 0.00 0.00 0.00 0.00 0.00 0.00 0.00 0.00 0.00 0.00 0.00 0.00 0.00 0.00
0.02 0.02 0.01 0.02 0.02 0.02 0.04 0.04 0.04 0.03 0.02 0.01 0.00 0.00 0.00 0.00 0.00 0.00 0.00 0.00 0.00 0.00 0.00 0.00 0.00 0.00 0.00 0.00 0.00 0.00 0.00 0.00 0.00 0.00 0.00 0.00 0.00 0.00 0.00 0.00 0.00 0.00 0.00
0.00 0.00 0.00 0.00 0.00 0.00 0.00 0.00 0.00 0.00 0.00 0.00 0.00 0.00 0.00 0.00 0.00 0.00 0.00 0.00 0.00 0.00 0.00 0.00 0.00 0.00 0.00 0.00 0.00 0.00 0.00 0.00 0.00 0.00 0.00 0.00 0.00 0.00 0.00 0.00 0.00 0.00 0.00
0.00 0.00 0.00 0.00 0.00 0.00 0.00 0.00 0.00 0.00 0.00 0.00 0.00 0.00 0.00 0.00 0.00 0.00 0.00 0.00 0.00 0.00 0.00 0.00 0.00 0.00 0.00 0.00 0.00 0.00 0.00 0.00 0.00 0.00 0.00 0.00 0.00 0.00 0.00 0.00 0.00 0.00 0.00
0.00 0.00 0.00 0.00 0.00 0.00 0.00 0.00 0.00 0.00 0.00 0.00 0.00 0.00 0.00 0.00 0.00 0.00 0.00 0.00 0.00 0.00 0.00 0.00 0.00 0.00 0.00 0.00 0.00 0.00 0.00 0.00 0.00 0.00 0.00 0.00 0.00 0.00 0.00 0.00 0.00 0.00 0.00
0.00 0.00 0.00 0.00 0.00 0.00 0.00 0.00 0.00 0.00 0.00 0.00 0.00 0.00 0.00 0.00 0.00 0.00 0.00 0.00 0.00 0.00 0.00 0.00 0.00 0.00 0.00 0.00 0.00 0.00 0.00 0.00 0.00 0.00 0.00 0.00 0.00 0.00 0.00 0.00 0.00 0.00 0.00
0.00 0.00 0.00 0.00 0.00 0.00 0.00 0.00 0.00 0.00 0.00 0.00 0.00 0.00 0.00 0.00 0.00 0.00 0.00 0.00 0.00 0.00 0.00 0.00 0.00 0.00 0.00 0.00 0.00 0.00 0.00 0.00 0.00 0.00 0.00 0.00 0.00 0.00 0.00 0.00 0.00 0.00 0.00
0.00 0.00 0.00 0.00 0.00 0.00 0.00 0.00 0.00 0.00 0.00 0.00 0.00 0.00 0.00 0.00 0.00 0.00 0.00 0.00 0.00 0.00 0.00 0.00 0.00 0.00 0.00 0.00 0.00 0.00 0.00 0.00 0.00 0.00 0.00 0.00 0.00 0.00 0.00 0.00 0.00 0.00 0.00
0.00 0.00 0.00 0.00 0.00 0.00 0.00 0.00 0.00 0.00 0.00 0.00 0.00 0.00 0.00 0.00 0.00 0.00 0.00 0.00 0.00 0.00 0.00 0.00 0.00 0.00 0.00 0.00 0.00 0.00 0.00 0.00 0.00 0.00 0.00 0.00 0.00 0.00 0.00 0.00 0.00 0.00 0.00
0.00 0.00 0.00 0.00 0.00 0.00 0.00 0.00 0.00 0.00 0.00 0.00 0.00 0.00 0.00 0.00 0.00 0.00 0.00 0.00 0.00 0.00 0.00 0.00 0.00 0.00 0.00 0.00 0.00 0.00 0.00 0.00 0.00 0.00 0.00 0.00 0.00 0.00 0.00 0.00 0.00 0.00 0.00
0.00 0.00 0.00 0.00 0.00 0.00 0.00 0.00 0.00 0.00 0.00 0.00 0.00 0.00 0.00 0.00 0.00 0.00 0.00 0.00 0.00 0.00 0.00 0.00 0.00 0.00 0.00 0.00 0.00 0.00 0.00 0.00 0.00 0.00 0.00 0.00 0.00 0.00 0.00 0.00 0.00 0.00 0.00
0.00 0.00 0.00 0.00 0.00 0.00 0.00 0.00 0.00 0.00 0.00 0.00 0.00 0.00 0.00 0.00 0.00 0.00 0.00 0.00 0.00 0.00 0.00 0.00 0.00 0.00 0.00 0.00 0.00 0.00 0.00 0.00 0.00 0.00 0.00 0.00 0.00 0.00 0.00 0.00 0.00 0.00 0.00
0.00 0.00 0.00 0.00 0.00 0.00 0.00 0.00 0.00 0.00 0.00 0.00 0.00 0.00 0.00 0.00 0.00 0.00 0.00 0.00 0.00 0.00 0.00 0.00 0.00 0.00 0.00 0.00 0.00 0.00 0.00 0.00 0.00 0.00 0.00 0.00 0.00 0.00 0.00 0.00 0.00 0.00 0.00
0.00 0.00 0.00 0.00 0.00 0.00 0.00 0.00 0.00 0.00 0.00 0.00 0.00 0.00 0.00 0.00 0.00 0.00 0.00 0.00 0.00 0.00 0.00 0.00 0.00 0.00 0.00 0.00 0.00 0.00 0.00 0.00 0.00 0.00 0.00 0.00 0.00 0.00 0.00 0.00 0.00 0.00 0.00
0.00 0.00 0.00 0.00 0.00 0.00 0.00 0.00 0.00 0.00 0.00 0.00 0.00 0.00 0.00 0.00 0.00 0.00 0.00 0.00 0.00 0.00 0.00 0.00 0.00 0.00 0.00 0.00 0.00 0.00 0.00 0.00 0.00 0.00 0.00 0.00 0.00 0.00 0.00 0.00 0.00 0.00 0.00
MSLP
1014.43 1014.78 1015.22 1015.64 1016.00 1016.37 1016.54 1016.66 1016.79 1016.77 1016.95 1017.12 1017.12 1017.14 1017.27 1017.28 1017.50 1017.58 1017.88 1018.06 1018.08 1018.11 1018.13 1018.23 1018.23 1018.21 1018.20 1018.19 1018.10 1018.19 1018.11 1018.26 1018.44 1018.45 1018.56 1018.73 1018.91 1018.86 1018.99 1019.18 1019.26 1019.50 1019.70
1014.03 1014.52 1014.85 1015.17 1015.67 1016.12 1016.36 1016.49 1016.65 1016.68 1016.68 1016.84 1017.03 1017.17 1017.30 1017.42 1017.54 1017.64 1017.77 1017.88 1018.09 1018.06 1017.97 1017.99 1018.00 1017.97 1017.92 1017.89 1018.05 1018.13 1018.11 1018.19 1018.22 1018.23 1018.40 1018.58 1018.78 1018.96 1019.01 1019.38 1019.50 1019.64 1019.72
1013.55 1014.10 1014.59 1014.76 1015.18 1015.71 1016.08 1016.28 1016.41 1016.52 1016.54 1016.78 1016.99 1017.10 1017.30 1017.41 1017.54 1017.68 1017.65 1017.67 1017.77 1017.76 1017.75 1017.72 1017.67 1017.82 1017.65 1017.74 1017.94 1018.10 1018.16 1018.11 1018.22 1018.20 1018.29 1018.58 1018.77 1018.95 1019.29 1019.60 1019.88 1020.00 1019.88
1013.27 1013.76 1014.22 1014.49 1014.59 1015.02 1015.39 1015.81 1016.13 1016.31 1016.53 1016.70 1016.81 1017.02 1017.34 1017.53 1017.63 1017.66 1017.70 1017.68 1017.69 1017.67 1017.71 1017.77 1017.66 1017.64 1017.53 1017.74 1017.76 1017.83 1018.02 1018.06 1018.24 1018.46 1018.57 1018.52 1018.61 1018.85 1019.03 1019.39 1019.78 1020.00 1020.04
1013.55 1013.91 1013.90 1014.21 1014.54 1014.88 1015.16 1015.57 1015.89 1016.14 1016.23 1016.40 1016.67 1016.99 1017.33 1017.60 1017.76 1017.81 1017.71 1017.70 1017.67 1017.59 1017.48 1017.39 1017.50 1017.60 1017.62 1017.65 1017.76 1017.95 1017.99 1017.99 1018.15 1018.48 1018.66 1018.64 1018.63 1018.76 1018.81 1019.15 1019.61 1020.12 1020.29
1013.79 1013.99 1014.11 1014.41 1014.36 1014.63 1014.91 1015.33 1015.68 1015.94 1016.15 1016.38 1016.77 1017.10 1017.51 1018.00 1018.28 1018.19 1017.98 1017.74 1017.60 1017.58 1017.51 1017.36 1017.50 1017.72 1017.87 1017.99 1018.25 1018.47 1018.60 1018.30 1018.26 1018.36 1018.59 1018.64 1018.77 1018.80 1018.74 1019.00 1019.52 1019.93 1020.17
1013.48 1013.91 1014.23 1014.21 1014.42 1014.46 1014.70 1015.04 1015.46 1015.79 1016.25 1016.60 1017.08 1017.57 1017.98 1018.18 1018.13 1018.20 1018.11 1017.88 1017.80 1017.89 1017.88 1017.72 1017.84 1017.97 1018.05 1017.83 1018.44 1018.83 1019.32 1018.90 1018.59 1018.50 1018.81 1019.44 1019.42 1019.40 1019.26 1019.03 1019.25 1019.57 1019.75
1013.67 1013.70 1014.13 1014.27 1014.53 1014.76 1014.91 1015.10 1015.49 1015.94 1016.41 1016.74 1017.19 1017.75 1018.05 1018.26 1018.08 1018.08 1018.11 1018.23 1018.32 1018.61 1018.57 1018.55 1018.20 1018.28 1018.44 1018.50 1018.84 1019.36 1019.65 1019.52 1019.14 1019.21 1019.67 1020.13 1020.01 1019.71 1019.29 1019.14 1019.08 1019.56 1020.10
1013.58 1013.74 1014.13 1014.36 1014.52 1014.87 1015.12 1015.33 1015.72 1016.21 1016.73 1017.10 1017.52 1017.71 1018.06 1018.32 1018.03 1017.86 1018.09 1018.23 1018.72 1019.05 1019.01 1018.98 1018.82 1018.76 1018.70 1018.71 1019.02 1019.56 1019.88 1020.37 1020.10 1019.92 1020.16 1020.34 1020.20 1019.84 1019.39 1019.19 1019.33 1019.62 1020.21
1013.53 1013.70 1013.98 1014.29 1014.62 1014.72 1014.98 1015.33 1016.04 1016.61 1017.23 1017.75 1018.19 1018.43 1018.43 1018.45 1018.32 1017.95 1018.06 1018.55 1018.78 1018.94 1019.04 1019.19 1019.24 1019.16 1018.94 1018.81 1019.16 1019.62 1020.08 1020.43 1020.57 1020.37 1020.49 1020.67 1020.61 1020.43 1020.25 1020.03 1019.97 1020.01 1020.60
1013.68 1014.00 1014.08 1014.19 1014.35 1014.62 1015.13 1015.73 1016.33 1017.02 1017.65 1018.31 1018.65 1019.16 1019.21 1019.25 1018.86 1018.43 1018.33 1018.83 1018.93 1019.25 1019.68 1019.99 1020.04 1019.70 1019.06 1019.07 1019.32 1019.58 1020.07 1020.68 1020.86 1020.92 1021.12 1021.25 1021.30 1021.24 1021.16 1021.08 1020.85 1020.79 1021.13
1014.33 1014.38 1014.75 1014.81 1015.05 1015.25 1015.54 1016.15 1016.80 1017.40 1017.99 1018.68 1019.15 1019.49 1019.57 1019.73 1019.69 1019.24 1018.71 1018.91 1019.15 1019.58 1020.15 1020.33 1020.50 1020.24 1020.00 1019.54 1019.64 1019.99 1020.36 1020.70 1021.02 1021.36 1021.67 1022.00 1021.89 1022.20 1022.04 1021.83 1021.58 1021.76 1021.75
1015.20 1015.41 1015.64 1015.88 1016.08 1016.16 1016.36 1017.18 1017.69 1018.17 1018.61 1019.15 1019.49 1019.79 1019.92 1020.05 1020.20 1019.98 1019.90 1019.78 1019.83 1020.17 1020.50 1020.78 1020.82 1020.74 1020.52 1020.50 1020.73 1020.93 1021.11 1021.31 1021.58 1021.94 1022.26 1022.61 1022.53 1022.48 1022.33 1022.31 1022.45 1022.30 1022.26
1015.90 1016.17 1016.56 1016.63 1017.13 1017.35 1017.45 1017.66 1018.28 1018.95 1019.30 1019.71 1019.96 1020.17 1020.33 1020.48 1020.46 1020.54 1020.79 1020.78 1020.67 1020.83 1021.12 1021.26 1021.19 1021.10 1021.02 1021.20 1021.33 1021.45 1021.78 1021.91 1022.26 1022.51 1022.58 1022.84 1022.70 1022.86 1022.83 1022.90 1022.97 1022.98 1022.89
1016.42 1016.86 1017.22 1017.52 1017.93 1018.32 1018.86 1019.00 1019.11 1019.68 1019.56 1019.50 1019.95 1020.13 1020.46 1020.60 1021.15 1021.29 1021.34 1021.54 1021.67 1021.80 1021.69 1021.63 1021.51 1021.60 1021.79 1021.97 1022.25 1022.31 1022.53 1022.73 1022.87 1023.09 1023.10 1023.18 1023.45 1023.08 1023.69 1023.49 1023.48 1023.67 1023.73
1017.27 1017.58 1017.89 1018.19 1018.49 1018.95 1019.46 1020.04 1020.17 1020.14 1019.94 1020.02 1020.19 1020.52 1021.15 1021.32 1021.44 1021.54 1021.95 1021.94 1021.88 1021.70 1022.14 1022.24 1022.29 1022.46 1022.59 1022.71 1022.79 1022.96 1023.19 1023.60 1023.56 1023.53 1023.74 1023.67 1023.82 1023.55 1023.99 1024.15 1024.03 1024.12 1024.42
1017.79 1018.32 1018.71 1018.94 1019.10 1019.21 1019.25 1019.45 1019.91 1020.59 1020.61 1020.77 1020.99 1021.23 1021.52 1021.94 1022.02 1022.08 1022.14 1022.31 1022.25 1022.13 1022.17 1022.57 1022.60 1022.77 1023.14 1023.35 1023.65 1023.60 1023.86 1023.98 1024.02 1023.94 1023.87 1024.14 1024.06 1023.99 1024.11 1024.38 1024.45 1024.52 1024.80
1017.97 1018.63 1018.93 1019.28 1019.44 1019.65 1019.85 1019.99 1020.05 1020.49 1020.88 1021.48 1021.90 1022.14 1022.44 1022.28 1022.30 1022.24 1022.64 1022.25 1022.52 1022.38 1022.31 1022.60 1022.77 1023.04 1023.31 1023.63 1024.15 1024.41 1024.49 1024.61 1024.55 1024.36 1024.47 1024.47 1024.35 1024.47 1024.55 1024.72 1024.77 1025.05 1025.11
1018.19 1018.61 1018.93 1019.46 1019.70 1019.91 1020.25 1020.50 1020.77 1020.97 1021.05 1021.43 1021.99 1022.22 1022.40 1022.28 1022.35 1022.33 1022.32 1022.23 1022.20 1022.37 1022.48 1022.66 1022.83 1022.96 1023.41 1023.68 1023.98 1024.37 1024.58 1024.60 1024.70 1024.85 1025.01 1024.71 1024.77 1024.91 1025.09 1025.17 1025.31 1025.49 1025.54
1018.56 1018.78 1018.84 1019.15 1019.69 1020.12 1020.41 1020.44 1020.60 1020.97 1021.50 1021.67 1021.81 1021.98 1022.43 1022.67 1022.52 1022.50 1022.38 1022.33 1022.11 1022.03 1022.32 1022.64 1023.04 1023.17 1023.31 1023.73 1023.90 1024.14 1024.28 1024.51 1024.76 1024.89 1025.12 1025.13 1025.27 1025.31 1025.54 1025.72 1025.61 1025.83 1025.81
1018.40 1018.59 1018.77 1019.18 1019.39 1019.71 1020.32 1020.56 1020.70 1020.95 1021.04 1021.26 1021.60 1021.77 1021.66 1021.77 1021.96 1022.16 1022.11 1021.98 1021.99 1021.94 1022.29 1022.57 1022.98 1023.20 1023.34 1023.56 1023.84 1024.15 1024.28 1024.25 1024.56 1024.77 1025.08 1025.27 1025.58 1025.68 1025.88 1026.02 1026.26 1026.18 1026.15
1018.11 1018.53 1018.94 1019.27 1019.48 1019.67 1019.84 1020.36 1020.41 1020.39 1020.68 1020.87 1020.88 1021.33 1021.42 1021.31 1021.22 1021.42 1021.55 1021.66 1021.81 1021.83 1022.03 1022.38 1022.68 1022.96 1023.10 1023.50 1023.69 1023.73 1024.01 1024.03 1024.23 1024.62 1024.93 1025.14 1025.58 1025.84 1025.92 1026.25 1026.37 1026.32 1026.40
1017.97 1018.28 1018.70 1019.02 1019.23 1019.45 1019.66 1019.79 1020.09 1019.90 1020.13 1020.32 1020.41 1020.79 1021.06 1021.08 1020.77 1020.65 1020.99 1021.02 1021.32 1021.71 1021.93 1022.18 1022.35 1022.69 1023.06 1023.12 1023.42 1023.46 1023.49 1023.66 1023.92 1024.38 1024.68 1025.13 1025.55 1025.69 1025.91 1026.06 1026.14 1026.26 1026.31
1017.85 1018.21 1018.42 1018.73 1019.03 1019.00 1019.11 1019.28 1019.42 1019.38 1019.68 1019.71 1020.05 1020.41 1020.38 1020.38 1020.44 1020.55 1020.87 1021.03 1021.14 1021.35 1021.66 1021.92 1022.05 1022.00 1022.33 1022.79 1023.05 1023.32 1023.48 1023.57 1023.78 1024.09 1024.48 1024.96 1025.23 1025.49 1025.69 1025.86 1025.95 1025.98 1026.01
1017.49 1017.63 1017.85 1018.11 1018.30 1018.55 1018.73 1018.74 1018.77 1019.00 1019.15 1019.36 1019.44 1019.55 1019.53 1019.77 1019.95 1019.95 1020.07 1020.28 1020.63 1020.86 1021.00 1021.22 1021.35 1021.50 1021.79 1022.02 1022.26 1022.51 1022.69 1023.25 1023.57 1023.86 1024.20 1024.45 1024.77 1025.17 1025.40 1025.42 1025.45 1025.55 1025.83
1017.01 1017.29 1017.59 1017.83 1017.89 1018.02 1018.19 1018.42 1018.55 1018.66 1018.86 1018.81 1018.95 1019.09 1019.00 1019.18 1019.24 1019.34 1019.56 1019.71 1019.71 1019.83 1020.03 1020.40 1020.64 1020.82 1020.90 1021.46 1021.84 1021.97 1022.78 1022.98 1023.36 1023.65 1023.76 1024.22 1024.52 1024.96 1025.05 1025.13 1025.34 1025.54 1025.72
Thickness
5758 5759 5759 5760 5761 5761 5761 5762 5762 5763 5761 5761 5764 5765 5765 5767 5766 5765 5763 5762 5762 5763 5764 5762 5762 5762 5761 5762 5762 5761 5760 5758 5753 5755 5755 5752 5750 5750 5748 5745 5744 5742 5740
5759 5757 5758 5760 5759 5758 5758 5760 5761 5761 5763 5762 5762 5763 5763 5764 5763 5762 5761 5762 5760 5761 5763 5763 5763 5763 5763 5763 5762 5760 5759 5758 5756 5754 5754 5752 5751 5749 5747 5744 5742 5741 5741
5759 5757 5755 5757 5757 5757 5757 5758 5759 5760 5762 5761 5760 5761 5761 5761 5760 5761 5761 5761 5760 5761 5762 5762 5763 5762 5762 5762 5760 5757 5757 5756 5754 5753 5751 5751 5750 5748 5744 5741 5738 5738 5738
5755 5755 5754 5755 5758 5757 5758 5756 5755 5756 5757 5756 5756 5756 5756 5756 5757 5758 5757 5758 5758 5758 5758 5758 5760 5760 5760 5758 5758 5756 5754 5752 5750 5747 5746 5747 5747 5747 5745 5740 5737 5736 5735
5747 5747 5751 5752 5754 5753 5754 5752 5751 5752 5754 5755 5754 5753 5750 5749 5750 5752 5754 5754 5753 5754 5756 5759 5758 5756 5756 5756 5754 5751 5751 5749 5747 5743 5741 5742 5743 5742 5741 5739 5734 5730 5728
5739 5741 5743 5745 5749 5749 5751 5749 5748 5746 5749 5750 5748 5746 5744 5741 5741 5743 5747 5751 5752 5751 5751 5754 5753 5750 5750 5748 5746 5743 5742 5744 5742 5740 5739 5738 5738 5738 5738 5735 5730 5726 5722
5736 5736 5737 5739 5740 5743 5745 5745 5744 5743 5740 5740 5739 5737 5735 5735 5736 5737 5740 5744 5745 5744 5743 5745 5746 5746 5745 5745 5738 5736 5730 5733 5737 5738 5736 5728 5729 5727 5728 5729 5726 5722 5720
5727 5729 5731 5732 5733 5734 5737 5737 5737 5737 5735 5734 5732 5730 5729 5728 5731 5732 5735 5734 5733 5731 5733 5734 5738 5737 5735 5734 5730 5725 5722 5723 5726 5725 5720 5715 5716 5718 5720 5721 5721 5716 5711
5719 5721 5722 5723 5725 5725 5726 5728 5728 5726 5725 5724 5723 5723 5722 5722 5725 5728 5730 5728 5723 5721 5722 5722 5725 5726 5726 5726 5723 5717 5714 5709 5710 5711 5709 5707 5707 5710 5713 5713 5711 5709 5703
5713 5714 5715 5715 5716 5718 5720 5720 5717 5716 5713 5712 5710 5710 5712 5714 5715 5720 5721 5718 5716 5716 5716 5714 5713 5715 5718 5720 5716 5711 5705 5702 5699 5700 5698 5696 5695 5696 5696 5696 5697 5696 5690
5707 5707 5710 5710 5711 5713 5710 5708 5706 5704 5702 5698 5698 5695 5695 5696 5700 5706 5710 5708 5707 5705 5702 5699 5698 5700 5706 5706 5706 5703 5699 5692 5689 5688 5685 5682 5679 5679 5679 5678 5679 5679 5674
5697 5699 5700 5702 5702 5702 5701 5698 5695 5693 5691 5687 5686 5684 5684 5684 5685 5691 5697 5697 5695 5693 5688 5686 5686 5689 5689 5694 5693 5691 5688 5684 5680 5676 5672 5667 5667 5663 5663 5664 5664 5661 5660
5686 5686 5687 5689 5688 5691 5691 5686 5684 5681 5680 5679 5677 5675 5673 5672 5672 5676 5676 5679 5679 5677 5675 5672 5676 5678 5680 5679 5676 5673 5672 5670 5668 5663 5658 5653 5653 5651 5649 5648 5646 5645 5644
5677 5677 5676 5677 5676 5677 5678 5676 5672 5670 5668 5667 5667 5666 5665 5665 5666 5666 5665 5664 5666 5664 5663 5664 5666 5667 5668 5667 5665 5662 5657 5656 5651 5648 5647 5643 5642 5638 5636 5634 5631 5628 5627
5673 5670 5669 5668 5665 5662 5659 5660 5661 5657 5661 5666 5664 5663 5662 5662 5658 5656 5657 5656 5656 5654 5654 5655 5656 5655 5653 5650 5646 5645 5642 5639 5637 5634 5633 5630 5625 5626 5618 5617 5615 5611 5608
5662 5661 5659 5657 5656 5655 5653 5648 5646 5646 5649 5652 5654 5654 5649 5648 5648 5649 5646 5645 5645 5645 5642 5640 5640 5638 5637 5635 5633 5631 5627 5622 5621 5620 5616 5615 5611 5611 5605 5600 5598 5596 5591
5652 5648 5645 5643 5644 5645 5648 5649 5647 5640 5639 5639 5639 5640 5640 5637 5636 5636 5637 5635 5635 5636 5634 5629 5629 5627 5622 5619 5616 5616 5612 5610 5607 5607 5606 5601 5600 5598 5595 5590 5587 5584 5578
5647 5639 5636 5633 5633 5632 5633 5634 5636 5634 5632 5628 5625 5626 5624 5626 5626 5626 5624 5626 5626 5625 5626 5622 5619 5616 5612 5608 5602 5599 5597 5594 5594 5594 5591 5589 5589 5585 5581 5577 5573 5568 5564
5642 5636 5632 5627 5625 5622 5620 5619 5618 5618 5621 5619 5615 5615 5614 5615 5615 5615 5615 5618 5618 5614 5612 5610 5609 5607 5602 5599 5595 5590 5587 5586 5583 5579 5575 5577 5574 5569 5564 5560 5555 5549 5545
5634 5631 5631 5628 5622 5617 5614 5613 5613 5611 5608 5608 5608 5608 5604 5603 5605 5604 5605 5605 5606 5607 5603 5600 5596 5595 5593 5589 5587 5583 5581 5577 5572 5568 5563 5560 5556 5552 5548 5542 5539 5533 5528
5634 5633 5629 5625 5623 5619 5612 5609 5607 5603 5603 5602 5601 5601 5600 5600 5598 5596 5597 5598 5598 5598 5594 5592 5588 5585 5583 5580 5577 5573 5570 5568 5562 5558 5553 5547 5541 5538 5532 5527 5521 5516 5511
5633 5627 5622 5618 5617 5614 5612 5605 5605 5605 5602 5600 5599 5596 5593 5598 5598 5595 5594 5591 5589 5589 5586 5584 5580 5576 5574 5568 5565 5564 5560 5558 5553 5547 5541 5536 5529 5524 5520 5513 5507 5503 5497
5630 5626 5620 5616 5614 5611 5609 5606 5602 5605 5602 5599 5599 5596 5593 5592 5594 5595 5590 5589 5585 5580 5579 5575 5572 5568 5563 5562 5558 5555 5552 5547 5542 5535 5530 5523 5516 5512 5506 5501 5495 5489 5484
5627 5622 5620 5616 5611 5612 5610 5607 5605 5603 5601 5598 5593 5590 5591 5590 5589 5587 5583 5580 5577 5574 5571 5566 5564 5562 5558 5552 5548 5543 5539 5535 5531 5525 5518 5511 5505 5499 5494 5488 5483 5478 5474
5626 5625 5621 5618 5616 5611 5606 5604 5603 5599 5597 5594 5592 5590 5590 5587 5585 5583 5580 5576 5571 5567 5563 5560 5557 5553 5548 5543 5539 5534 5531 5525 5518 5513 5508 5502 5495 5488 5483 5479 5475 5469 5463
5626 5622 5617 5613 5611 5607 5603 5599 5596 5594 5591 5591 5589 5586 5586 5582 5579 5577 5573 5570 5567 5564 5560 5554 5549 5545 5542 5535 5529 5524 5518 5514 5508 5502 5497 5490 5484 5477 5473 5469 5463 5457 5451